Regional Weather Roundup
Issued by NWS Upton, NY

Current Version | Previous Version | Graphics & Text | Print | Product List | Glossary Off
Versions: 1 2 3 4 5 6 7 8 9 10 11 12 13 14 15 16 17 18 19 20 21 22 23 24 25 26 27

000
ASUS41 KOKX 310105
RWROKX

REGIONAL WEATHER ROUNDUP
NATIONAL WEATHER SERVICE NEW YORK NY
900 PM EDT THU OCT 30 2014

NOTE: "FAIR" INDICATES FEW OR NO CLOUDS BELOW 12,000 FEET WITH NO
SIGNIFICANT WEATHER AND/OR OBSTRUCTIONS TO VISIBILITY.

NYZ071-072-176-178-NJZ106-104-310200-
NEW YORK CITY METRO AREA


CITY           SKY/WX    TMP DP  RH WIND       PRES   REMARKS
CENTRAL PARK   CLEAR     51  33  50 VRB5      30.04S
LAGUARDIA APRT PTCLDY    51  36  56 NW16G22   30.01S
KENNEDY INTL   CLEAR     51  33  50 NW12      30.02S
NEWARK/LIBERTY PTCLDY    50  34  54 NW8       30.02S
BRNX BOT. GARD   N/A     48  34  57 W5        30.03S
TETERBORO      CLEAR     48  33  56 NW6       30.01S
$$

NYZ177-179-078>081-310200-
LONG ISLAND NEW YORK

CITY           SKY/WX    TMP DP  RH WIND       PRES   REMARKS
FARMINGDALE    CLEAR     50  36  58 NW5       30.01S
ISLIP          PTCLDY    48  37  65 W5        29.99R
SHIRLEY        CLOUDY    48  40  73 W3        30.00S
WESTHAMPTON    CLOUDY    46  40  79 CALM      30.01R
MONTAUK POINT    N/A     54  36  50 N7        30.00R
$$

NYZ052-065-067-310200-
HUDSON VALLEY

CITY           SKY/WX    TMP DP  RH WIND       PRES   REMARKS
WHITE PLAINS   CLEAR     47  36  65 NW10      30.00S
NEWBURGH       PTCLDY    45  37  76 NW7       30.02S
MONTGOMERY     PTCLDY    45  36  70 NW8       30.00F
POUGHKEEPSIE   CLOUDY    51  36  56 NW6       30.00S
ALBANY         PTCLDY    43  33  68 W6        30.03R
$$

NJZ001-105-106-008-010-013-015-019>022-104-310200-
NEW JERSEY

CITY           SKY/WX    TMP DP  RH WIND       PRES   REMARKS
NEWARK/LIBERTY PTCLDY    50  34  54 NW8       30.02S
TETERBORO      CLEAR     48  33  56 NW6       30.01S
CALDWELL       CLEAR     44  34  67 CALM      30.02S
MORRISTOWN     CLEAR     41  36  81 CALM      30.03S
SOMERVILLE     CLEAR     40  34  79 CALM      30.01F
SUSSEX         CLEAR     40  34  79 CALM      30.02S
ANDOVER          N/A     39  35  86 CALM      30.03R
TRENTON        CLEAR     46  32  58 N3        30.02S
MILLVILLE      CLEAR     43  39  86 W5        30.03R
ATLANTIC CITY  CLEAR     44  39  82 N3        30.02S
WRIGHTSTOWN    CLEAR     46  36  68 N3        30.01S
TOMS RIVER     CLEAR     45  36  70 CALM      30.03S
BELMAR         CLEAR     46  32  57 NW5       30.02S
$$

PAZ047>061-062-071-310200-
EASTERN PENNSYLVANIA

CITY           SKY/WX    TMP DP  RH WIND       PRES   REMARKS
PHILADELPHIA   PTCLDY    50  34  54 N9        30.04R
ALLENTOWN      PTCLDY    46  33  60 N3        30.04S
SCRANTON       PTCLDY    46  30  53 N5        30.03S
$$

CTZ002-004>006-009-010-012-RIZ004-006-007-MAZ004-011-015-310200-
SOUTHERN NEW ENGLAND
 IN CT

CITY           SKY/WX    TMP DP  RH WIND       PRES   REMARKS
BRADLEY INTL   PTCLDY    45  35  68 NW3       29.98S
HARTFORD       CLEAR     44  37  76 S6        29.99S
DANBURY        CLOUDY    47  36  65 W3        30.01S
WTRBRY/OXFORD  MOCLDY    45  34  65 N5        30.00R
BRIDGEPORT     CLOUDY    50  37  61 W3        30.00R
MERIDEN        CLEAR     41  36  82 CALM      30.00R
NEW HAVEN      MOCLDY    46  36  68 CALM      30.00R
CHESTER        FAIR      45  36  70 NW3       30.00R
GROTON         CLEAR     44  36  73 N5        29.98S
WILLIMANTIC    CLEAR     42  36  79 CALM      29.99R

 IN RI

CITY           SKY/WX    TMP DP  RH WIND       PRES   REMARKS
PROVIDENCE     PTCLDY    47  36  65 W3        29.98S
BLOCK ISLAND   CLEAR     52  34  50 NW7       29.98R
WESTERLY       CLEAR     44  36  73 CALM      29.99S

 IN MA

CITY           SKY/WX    TMP DP  RH WIND       PRES   REMARKS
BOSTON         PTCLDY    51  38  60 N5        29.97S
WORCESTER      PTCLDY    44  35  70 NW12      29.97R
WESTFIELD      CLEAR     37  35  92 CALM      29.99R
PROVINCETOWN   CLOUDY    48  -4  11 NW3       29.97R
NANTUCKET      CLEAR     48  44  86 NE9       29.96R
$$

ANZ330-335-338-340-345-350-353-355-310200-
COASTAL MARINE OBSERVATIONS


STATION/POSITION TIME  SKY/WX   TEMP    WIND        PRES    VSBY  WAVE
                                AIR SEA DIR/SP/G                  HT/PER
                 (UTC)          (F)     (DEG/KT/KT) (MB)    (MI)  (FT/S)
NY HARB ENTRANCE 0100            54 61  320/ 14/ 17 1016.4          2/ 3
4S FIRE IS       0100               62                N/A           2/ 7
20S FIRE ISLAND  0100            56 62  330/ 14/ 17 1015.8          2/ 4
23SW MTP         0100                                 N/A           2/ 7
HUDSON CANYON    0100            58 64  320/ 10/ 14 1015.3          2/ 7
EXECUTION ROCKS  0100            52 60  330/ 14/ 17   N/A
WESTERN LI SOUND 0100            53     310/ 14/ 17   N/A           1
CENTRAL LI SOUND 0000            54 61  340/ 14/ 16   N/A           1/ 2
EASTERN LI SOUND 0000            54 62  330/ 10/ 12   N/A
ROBBINS REEF     0100            52     330/  9/ 10 1015.3
$$


>>>>>>>>>>>>>>>>>>>>>>>>>>>> KEY <<<<<<<<<<<<<<<<<<<<<<<<<<<
>                                                          <
>     SKY/WX - SKY CONDITION/PRESENT WEATHER               <
>     TMP    - TEMPERATURE IN FAHRENHEIT                   <
>     DP     - DEWPOINT IN FAHRENHEIT                      <
>     RH     - RELATIVE HUMIDITY IN PERCENT                <
>     WIND   - DIRECTION AND SPEED IN MPH                  <
>     PRES   - MEAN SEA LEVEL PRESSURE IN INCHES OF HG     <
>     WCI    - WIND CHILL INDEX                            <
>     VSB    - VISIBILITY IN MILES                         <
>     HX     - HEAT INDEX                                  <
>     TC     - TEMPERATURE IN CELSIUS                      <
>     VRB    - VARIABLE WIND DIRECTION                     <
>                                                          <
>>>>>>>>>>>>>>>>>>>>>>>>>>>> KEY <<<<<<<<<<<<<<<<<<<<<<<<<<<





USA.gov is the U.S. government's official web portal to all federal, state and local government web resources and services.